{"data":{"norad_id":39210,"epoch":"2026-09-20T05:18:32.776416Z","epoch_age_seconds":42168,"freshness":"FRESH","line1":"1 39210U 13037C   26263.22121269  .00000325  00000+0  60398-4 0  9992","line2":"2 39210  98.1100 265.8538 0005659 192.8158 167.2905 14.71599240708302","mean_motion":14.7159924,"eccentricity":0.0005659,"inclination_deg":98.11,"raan_deg":265.8538,"arg_perigee_deg":192.8158,"mean_anomaly_deg":167.2905,"bstar":6.0398e-5,"rev_number":70830,"period_min":97.852727893499,"perigee_km":651.98671819231,"apogee_km":659.94791745923,"semimajor_km":7034.1043178258,"source":"CELESTRAK","updated_at":"2026-09-20T09:00:13.916865Z"}}